<?xml version='1.0' encoding='UTF-8'?>
<gpx xmlns="http://www.topografix.com/GPX/1/1" creator="www.balnam.be" version="1.1" xmlns:xsi="http://www.w3.org/2001/XMLSchema-instance" xsi:schemaLocation="http://www.topografix.com/GPX/1/1 http://www.topografix.com/GPX/1/1/gpx.xsd">
<trk>
<name>hbtgg21</name>
<cmt>b</cmt>
<desc>Guignies Sentier n°21 Ruelle Dandance</desc>
<link href="https://chemins.be/guignies/sentier/21"/><trkseg>
<trkpt lat="50.533914" lon="3.361110"><time>2026-05-02T19:09:35Z</time></trkpt>
<trkpt lat="50.535649" lon="3.361505"><time>2026-05-02T19:19:35Z</time></trkpt>
</trkseg></trk>
<trk>
<name>hbtgg21</name>
<cmt>d</cmt>
<desc>Guignies Sentier n°21 Ruelle Dandance</desc>
<link href="https://chemins.be/guignies/sentier/21"/><trkseg>
<trkpt lat="50.535649" lon="3.361505"><time>2026-05-02T19:19:35Z</time></trkpt>
<trkpt lat="50.536936" lon="3.361591"><time>2026-05-02T19:29:35Z</time></trkpt>
<trkpt lat="50.538642" lon="3.361726"><time>2026-05-02T19:39:35Z</time></trkpt>
<trkpt lat="50.538768" lon="3.361228"><time>2026-05-02T19:49:35Z</time></trkpt>
<trkpt lat="50.540819" lon="3.361872"><time>2026-05-02T19:59:35Z</time></trkpt>
<trkpt lat="50.541239" lon="3.362662"><time>2026-05-02T20:09:35Z</time></trkpt>
<trkpt lat="50.541708" lon="3.363151"><time>2026-05-02T20:19:35Z</time></trkpt>
<trkpt lat="50.543517" lon="3.364448"><time>2026-05-02T20:29:35Z</time></trkpt>
</trkseg></trk>
<trk>
<name>hbtgg21</name>
<cmt>b</cmt>
<desc>Guignies Sentier n°21 Ruelle Dandance</desc>
<link href="https://chemins.be/guignies/sentier/21"/><trkseg>
<trkpt lat="50.543517" lon="3.364448"><time>2026-05-02T20:29:35Z</time></trkpt>
<trkpt lat="50.543642" lon="3.364556"><time>2026-05-02T20:39:35Z</time></trkpt>
</trkseg></trk>
<trk>
<name>hbtgg21</name>
<cmt>v</cmt>
<desc>Guignies Sentier n°21 Ruelle Dandance</desc>
<link href="https://chemins.be/guignies/sentier/21"/><trkseg>
<trkpt lat="50.543642" lon="3.364556"><time>2026-05-02T20:39:35Z</time></trkpt>
<trkpt lat="50.544010" lon="3.364953"><time>2026-05-02T20:49:35Z</time></trkpt>
</trkseg></trk>
<trk>
<name>hbtgg21</name>
<cmt>r</cmt>
<desc>Guignies Sentier n°21 Ruelle Dandance</desc>
<link href="https://chemins.be/guignies/sentier/21"/><trkseg>
<trkpt lat="50.544010" lon="3.364953"><time>2026-05-02T20:49:35Z</time></trkpt>
<trkpt lat="50.545016" lon="3.365948"><time>2026-05-02T20:59:35Z</time></trkpt>
<trkpt lat="50.545077" lon="3.365946"><time>2026-05-02T21:09:35Z</time></trkpt>
</trkseg></trk>
<trk>
<name>hbtgg21</name>
<cmt>v</cmt>
<desc>Guignies Sentier n°21 Ruelle Dandance</desc>
<link href="https://chemins.be/guignies/sentier/21"/><trkseg>
<trkpt lat="50.545077" lon="3.365946"><time>2026-05-02T21:09:35Z</time></trkpt>
<trkpt lat="50.545282" lon="3.366713"><time>2026-05-02T21:19:35Z</time></trkpt>
<trkpt lat="50.545367" lon="3.367116"><time>2026-05-02T21:29:35Z</time></trkpt>
<trkpt lat="50.545446" lon="3.367552"><time>2026-05-02T21:39:35Z</time></trkpt>
</trkseg></trk>
<trk>
<name>hbtgg21</name>
<cmt>b</cmt>
<desc>Guignies Sentier n°21 Ruelle Dandance</desc>
<link href="https://chemins.be/guignies/sentier/21"/><trkseg>
<trkpt lat="50.545446" lon="3.367552"><time>2026-05-02T21:39:35Z</time></trkpt>
<trkpt lat="50.545561" lon="3.369225"><time>2026-05-02T21:49:35Z</time></trkpt>
<trkpt lat="50.545192" lon="3.369232"><time>2026-05-02T21:59:35Z</time></trkpt>
<trkpt lat="50.545556" lon="3.371863"><time>2026-05-02T22:09:35Z</time></trkpt>
</trkseg>
</trk>
</gpx>